TimeEST,TemperatureF,Dew PointF,Humidity,Sea Level PressureIn,VisibilityMPH,Wind Direction,Wind SpeedMPH,Gust SpeedMPH,PrecipitationIn,Events,Conditions,WindDirDegrees,DateUTC
12:15 AM,53.6,48.2,82,30.24,10.0,Calm,Calm,-,N/A,,Clear,0,2013-02-10 05:15:00
12:35 AM,51.8,48.2,88,30.23,10.0,Calm,Calm,-,N/A,,Clear,0,2013-02-10 05:35:00
12:55 AM,51.8,48.2,88,30.23,10.0,Calm,Calm,-,N/A,,Clear,0,2013-02-10 05:55:00
1:15 AM,51.8,48.2,88,30.23,10.0,Calm,Calm,-,N/A,,Clear,0,2013-02-10 06:15:00
1:35 AM,51.8,48.2,88,30.22,10.0,Calm,Calm,-,N/A,,Clear,0,2013-02-10 06:35:00
1:55 AM,51.8,48.2,88,30.22,10.0,Calm,Calm,-,N/A,,Clear,0,2013-02-10 06:55:00
2:15 AM,51.8,48.2,88,30.22,10.0,Calm,Calm,-,N/A,,Clear,0,2013-02-10 07:15:00
2:35 AM,51.8,50.0,94,30.22,10.0,Calm,Calm,-,N/A,,Clear,0,2013-02-10 07:35:00
2:55 AM,51.8,50.0,94,30.22,10.0,Calm,Calm,-,N/A,,Clear,0,2013-02-10 07:55:00
3:15 AM,50.0,50.0,100,30.22,10.0,Calm,Calm,-,N/A,,Clear,0,2013-02-10 08:15:00
3:35 AM,51.8,50.0,94,30.22,10.0,Calm,Calm,-,N/A,,Clear,0,2013-02-10 08:35:00
3:55 AM,50.0,50.0,100,30.22,10.0,Calm,Calm,-,N/A,,Clear,0,2013-02-10 08:55:00
4:15 AM,51.8,50.0,94,30.21,10.0,Calm,Calm,-,N/A,,Clear,0,2013-02-10 09:15:00
4:35 AM,51.8,50.0,94,30.21,10.0,Calm,Calm,-,N/A,,Clear,0,2013-02-10 09:35:00
4:55 AM,51.8,50.0,94,30.21,10.0,Calm,Calm,-,N/A,,Clear,0,2013-02-10 09:55:00
5:15 AM,51.8,50.0,94,30.22,10.0,Calm,Calm,-,N/A,,Clear,0,2013-02-10 10:15:00
5:35 AM,51.8,50.0,94,30.21,10.0,Calm,Calm,-,N/A,,Clear,0,2013-02-10 10:35:00
5:55 AM,50.0,48.2,94,30.22,10.0,Calm,Calm,-,N/A,,Clear,0,2013-02-10 10:55:00
6:15 AM,50.0,48.2,94,30.22,10.0,Calm,Calm,-,N/A,,Clear,0,2013-02-10 11:15:00
6:35 AM,50.0,48.2,94,30.22,10.0,Calm,Calm,-,N/A,,Clear,0,2013-02-10 11:35:00
6:55 AM,48.2,46.4,93,30.23,10.0,Calm,Calm,-,N/A,,Clear,0,2013-02-10 11:55:00
7:15 AM,48.2,48.2,100,30.24,10.0,Calm,Calm,-,N/A,,Clear,0,2013-02-10 12:15:00
7:35 AM,48.2,46.4,93,30.25,10.0,Calm,Calm,-,N/A,,Clear,0,2013-02-10 12:35:00
8:15 AM,53.6,51.8,94,30.26,10.0,Calm,Calm,-,N/A,,Scattered Clouds,0,2013-02-10 13:15:00
8:35 AM,57.2,53.6,88,30.27,10.0,Calm,Calm,-,N/A,,Scattered Clouds,0,2013-02-10 13:35:00
8:55 AM,60.8,53.6,77,30.28,10.0,East,4.6,-,N/A,,Clear,100,2013-02-10 13:55:00
9:15 AM,62.6,53.6,72,30.28,10.0,East,4.6,-,N/A,,Scattered Clouds,100,2013-02-10 14:15:00
9:35 AM,68.0,53.6,60,30.28,10.0,ESE,11.5,-,N/A,,Scattered Clouds,110,2013-02-10 14:35:00
9:55 AM,69.8,53.6,56,30.29,10.0,ESE,10.4,-,N/A,,Scattered Clouds,120,2013-02-10 14:55:00
10:15 AM,69.8,53.6,56,30.28,10.0,ESE,11.5,-,N/A,,Mostly Cloudy,120,2013-02-10 15:15:00
10:35 AM,71.6,53.6,53,30.29,10.0,SE,9.2,16.1,N/A,,Scattered Clouds,130,2013-02-10 15:35:00
10:55 AM,73.4,53.6,50,30.29,10.0,SE,8.1,11.5,N/A,,Mostly Cloudy,130,2013-02-10 15:55:00
11:15 AM,73.4,53.6,50,30.28,10.0,ESE,10.4,17.3,N/A,,Mostly Cloudy,120,2013-02-10 16:15:00
11:35 AM,75.2,53.6,47,30.27,7.0,SE,10.4,17.3,N/A,,Mostly Cloudy,140,2013-02-10 16:35:00
11:55 AM,75.2,53.6,47,30.27,7.0,ESE,11.5,16.1,N/A,,Scattered Clouds,120,2013-02-10 16:55:00
12:15 PM,75.2,53.6,47,30.26,7.0,SE,10.4,18.4,N/A,,Mostly Cloudy,140,2013-02-10 17:15:00
12:35 PM,77.0,53.6,44,30.24,7.0,ESE,15.0,19.6,N/A,,Mostly Cloudy,120,2013-02-10 17:35:00
12:55 PM,78.8,55.4,44,30.23,10.0,SE,9.2,18.4,N/A,,Clear,130,2013-02-10 17:55:00
1:15 PM,78.8,55.4,44,30.22,10.0,SE,12.7,16.1,N/A,,Mostly Cloudy,140,2013-02-10 18:15:00
1:35 PM,77.0,55.4,47,30.21,10.0,South,10.4,-,N/A,,Mostly Cloudy,170,2013-02-10 18:35:00
1:55 PM,80.6,55.4,42,30.20,10.0,South,12.7,16.1,N/A,,Mostly Cloudy,170,2013-02-10 18:55:00
2:15 PM,78.8,55.4,44,30.19,10.0,SE,9.2,-,N/A,,Mostly Cloudy,140,2013-02-10 19:15:00
2:35 PM,78.8,55.4,44,30.19,10.0,SE,8.1,-,N/A,,Mostly Cloudy,130,2013-02-10 19:35:00
2:55 PM,78.8,55.4,44,30.19,10.0,SE,9.2,-,N/A,,Mostly Cloudy,130,2013-02-10 19:55:00
3:15 PM,78.8,53.6,42,30.18,10.0,SE,10.4,-,N/A,,Mostly Cloudy,130,2013-02-10 20:15:00
3:35 PM,78.8,53.6,42,30.18,10.0,SSE,8.1,-,N/A,,Mostly Cloudy,150,2013-02-10 20:35:00
3:55 PM,78.8,53.6,42,30.17,10.0,ESE,9.2,-,N/A,,Scattered Clouds,120,2013-02-10 20:55:00
4:15 PM,78.8,53.6,42,30.17,10.0,East,9.2,-,N/A,,Mostly Cloudy,100,2013-02-10 21:15:00
4:35 PM,77.0,55.4,47,30.17,10.0,SE,6.9,-,N/A,,Mostly Cloudy,140,2013-02-10 21:35:00
4:55 PM,77.0,53.6,44,30.16,10.0,SE,5.8,-,N/A,,Mostly Cloudy,140,2013-02-10 21:55:00
5:15 PM,77.0,53.6,44,30.17,10.0,ESE,9.2,-,N/A,,Scattered Clouds,110,2013-02-10 22:15:00
5:35 PM,77.0,53.6,44,30.17,10.0,ESE,4.6,-,N/A,,Scattered Clouds,110,2013-02-10 22:35:00
5:55 PM,75.2,55.4,50,30.17,10.0,ESE,5.8,-,N/A,,Scattered Clouds,120,2013-02-10 22:55:00
6:15 PM,73.4,55.4,53,30.18,10.0,ESE,3.5,-,N/A,,Clear,120,2013-02-10 23:15:00
6:35 PM,71.6,55.4,57,30.18,10.0,ESE,5.8,-,N/A,,Scattered Clouds,120,2013-02-10 23:35:00
6:55 PM,71.6,55.4,57,30.19,10.0,ESE,4.6,-,N/A,,Clear,110,2013-02-10 23:55:00
7:15 PM,69.8,55.4,60,30.19,10.0,ESE,3.5,-,N/A,,Scattered Clouds,110,2013-02-11 00:15:00
7:35 PM,69.8,55.4,60,30.19,10.0,ESE,4.6,-,N/A,,Scattered Clouds,120,2013-02-11 00:35:00
7:55 PM,69.8,55.4,60,30.19,10.0,SE,5.8,-,N/A,,Scattered Clouds,130,2013-02-11 00:55:00
8:15 PM,69.8,57.2,64,30.19,10.0,SE,8.1,-,N/A,,Clear,130,2013-02-11 01:15:00
8:35 PM,68.0,55.4,64,30.20,10.0,SE,5.8,-,N/A,,Clear,140,2013-02-11 01:35:00
8:55 PM,68.0,55.4,64,30.21,10.0,SSE,4.6,-,N/A,,Clear,150,2013-02-11 01:55:00
9:15 PM,68.0,55.4,64,30.21,10.0,SSE,5.8,-,N/A,,Scattered Clouds,150,2013-02-11 02:15:00
9:35 PM,68.0,55.4,64,30.21,10.0,SSE,8.1,-,N/A,,Clear,150,2013-02-11 02:35:00
9:55 PM,68.0,55.4,64,30.21,10.0,SSE,6.9,-,N/A,,Clear,150,2013-02-11 02:55:00
10:15 PM,66.2,55.4,68,30.22,10.0,SSE,6.9,-,N/A,,Clear,150,2013-02-11 03:15:00
10:35 PM,64.4,55.4,73,30.21,10.0,SSE,8.1,-,N/A,,Clear,160,2013-02-11 03:35:00
10:55 PM,64.4,55.4,73,30.21,10.0,SSE,6.9,-,N/A,,Clear,160,2013-02-11 03:55:00
11:15 PM,64.4,55.4,73,30.20,10.0,SSE,8.1,-,N/A,,Clear,160,2013-02-11 04:15:00
11:35 PM,62.6,55.4,77,30.20,10.0,South,6.9,-,N/A,,Clear,170,2013-02-11 04:35:00
11:55 PM,62.6,55.4,77,30.20,10.0,SSE,5.8,-,N/A,,Clear,160,2013-02-11 04:55:00